Location: Bosdarros
(43.2167°N, 0.3667°W)
Time: 14:46:28
(UTC+00:00)

NOSS 0 Rocket - Pass Details

Date: 22 April 2021
Orbit: 935 x 955 km, 70.0° (Epoch: 12 May)

Event Time Altitude Azimuth Distance (km) Brightness Sun altitude
Rises 20:10:27 0° 331° (NNW) 3,627 8.1 -13.6°
Reaches altitude 10° 20:13:00 10° 330° (NNW) 2,681 7.3 -14.0°
Maximum altitude 20:19:11 71° 248° (WSW) 1,004 4.2 -15.0°
Enters shadow 20:24:40 14° 166° (SSE) 2,419 5.6 -15.8°
